APK225 DTTA-DAAJ

Flight info

Callsign APK225
Flight time N/A
Altitude 32000
Route NEBRO2C NEBRO W411 LOBNA UP161 KIRAS/N0447F240 W411 GAB/N0488F320 UR986 KESIB UG362 BARKA/N0486F330 UA605 DJA
Aircraft B77W/H-SDE1E2E3FGHIJ2J3J4J5M1RWXY/LB1D1

Departure

Time 2026-04-28 19:58
Airport Tunis Carthage International Airport (DTTA)

Arrival

Time N/A
Airport Tiska Djanet Airport (DAAJ)
Time Latitude Longitude Altitude Speed Heading
2026-04-28 19:13 36.84666 10.21955 30 ft 0 kts 198°
2026-04-28 19:33 36.84667 10.21955 30 ft 0 kts 198°
2026-04-28 19:45 36.84667 10.21956 30 ft 1 kts 198°
2026-04-28 19:45 36.84681 10.21961 28 ft 3 kts 198°
2026-04-28 19:46 36.84700 10.21969 30 ft 3 kts 198°
2026-04-28 19:46 36.84720 10.21977 30 ft 3 kts 198°
2026-04-28 19:46 36.84739 10.21985 29 ft 3 kts 198°
2026-04-28 19:46 36.84750 10.21989 29 ft 4 kts 198°
2026-04-28 19:52 36.84743 10.21987 30 ft 0 kts 198°
2026-04-28 19:52 36.84728 10.21988 29 ft 4 kts 161°
2026-04-28 19:52 36.84702 10.22072 30 ft 20 kts 120°
2026-04-28 19:52 36.84548 10.22088 29 ft 19 kts 171°
2026-04-28 19:53 36.84497 10.22195 29 ft 10 kts 95°
2026-04-28 19:53 36.84536 10.22258 29 ft 10 kts 23°
2026-04-28 19:53 36.84601 10.22286 29 ft 10 kts 14°
2026-04-28 19:53 36.84696 10.22314 30 ft 20 kts 13°
2026-04-28 19:54 36.84838 10.22348 30 ft 19 kts 12°
2026-04-28 19:54 36.84957 10.22375 31 ft 15 kts 356°
2026-04-28 19:54 36.85030 10.22292 32 ft 15 kts 294°
2026-04-28 19:54 36.85072 10.22169 32 ft 17 kts 293°
2026-04-28 19:55 36.85128 10.22006 32 ft 24 kts 293°
2026-04-28 19:55 36.85167 10.21880 33 ft 23 kts 290°
2026-04-28 19:55 36.85228 10.21728 33 ft 15 kts 319°
2026-04-28 19:55 36.85358 10.21745 33 ft 15 kts 20°
2026-04-28 19:56 36.85404 10.21772 34 ft 4 kts 44°
2026-04-28 19:56 36.85409 10.21821 34 ft 5 kts 98°
2026-04-28 19:56 36.85404 10.21836 34 ft 1 kts 112°
2026-04-28 19:56 36.85404 10.21838 34 ft 0 kts 112°
2026-04-28 19:57 36.85395 10.21865 34 ft 18 kts 112°
2026-04-28 19:57 36.85229 10.22369 32 ft 109 kts 112°
2026-04-28 19:58 36.84824 10.23591 56 ft 190 kts 111°
2026-04-28 19:58 36.84366 10.25112 1036 ft 187 kts 112°
2026-04-28 19:58 36.83885 10.26715 1961 ft 206 kts 115°
2026-04-28 19:58 36.83317 10.28453 2667 ft 225 kts 116°
2026-04-28 19:59 36.82474 10.30128 3059 ft 237 kts 138°
2026-04-28 19:59 36.81095 10.31296 3731 ft 245 kts 158°
2026-04-28 19:59 36.79394 10.31802 4437 ft 254 kts 180°
2026-04-28 19:59 36.77634 10.31454 5195 ft 261 kts 203°
2026-04-28 20:00 36.76160 10.30129 5946 ft 265 kts 222°
2026-04-28 20:00 36.74776 10.28574 6735 ft 269 kts 221°
2026-04-28 20:00 36.73372 10.27016 7580 ft 272 kts 221°
2026-04-28 20:00 36.71972 10.25455 8364 ft 277 kts 222°
2026-04-28 20:01 36.70485 10.23791 8197 ft 294 kts 222°
2026-04-28 20:01 36.68979 10.22107 8173 ft 285 kts 221°
2026-04-28 20:01 36.67347 10.20821 8292 ft 278 kts 198°
2026-04-28 20:01 36.65446 10.20415 8958 ft 280 kts 187°
2026-04-28 20:02 36.63497 10.20168 9673 ft 279 kts 187°
2026-04-28 20:02 36.61543 10.19925 10010 ft 285 kts 187°
2026-04-28 20:02 36.59553 10.19660 10007 ft 289 kts 189°
2026-04-28 20:02 36.57537 10.19276 10224 ft 301 kts 191°
2026-04-28 20:03 36.55406 10.18825 10552 ft 324 kts 191°
2026-04-28 20:03 36.53104 10.18331 10793 ft 349 kts 191°
2026-04-28 20:03 36.50634 10.17807 11213 ft 366 kts 191°
2026-04-28 20:03 36.48104 10.17278 12021 ft 372 kts 191°
2026-04-28 20:04 36.45518 10.16741 12804 ft 379 kts 191°
2026-04-28 20:04 36.42891 10.16202 13571 ft 387 kts 191°
2026-04-28 20:04 36.40213 10.15655 14336 ft 392 kts 191°
2026-04-28 20:04 36.37515 10.15106 15153 ft 395 kts 191°
2026-04-28 20:05 36.34787 10.14552 15956 ft 399 kts 191°
2026-04-28 20:05 36.32029 10.13992 16676 ft 405 kts 191°
2026-04-28 20:05 36.29234 10.13425 17400 ft 410 kts 191°
2026-04-28 20:05 36.26397 10.12850 18170 ft 414 kts 191°
2026-04-28 20:06 36.23539 10.12272 18843 ft 418 kts 191°
2026-04-28 20:06 36.20653 10.11688 19541 ft 421 kts 191°
2026-04-28 20:06 36.17749 10.11102 20266 ft 424 kts 192°
2026-04-28 20:06 36.14836 10.10513 20945 ft 426 kts 192°
2026-04-28 20:07 36.11893 10.09919 21616 ft 430 kts 192°
2026-04-28 20:07 36.09930 10.09523 22055 ft 432 kts 192°
2026-04-28 20:07 36.05942 10.08718 22909 ft 437 kts 192°
2026-04-28 20:07 36.02937 10.08113 23005 ft 438 kts 192°
2026-04-28 20:08 35.99971 10.07516 23029 ft 438 kts 192°
2026-04-28 20:08 35.96956 10.06911 23029 ft 438 kts 192°
2026-04-28 20:08 35.93946 10.06307 23028 ft 439 kts 192°
2026-04-28 20:08 35.90932 10.05702 23030 ft 438 kts 192°
2026-04-28 20:09 35.87918 10.05098 23030 ft 438 kts 192°
2026-04-28 20:09 35.84909 10.04495 23028 ft 438 kts 192°
2026-04-28 20:09 35.81896 10.03891 23025 ft 438 kts 192°
2026-04-28 20:09 35.78883 10.03288 23028 ft 438 kts 192°
2026-04-28 20:10 35.75870 10.02686 23027 ft 438 kts 192°
2026-04-28 20:10 35.72857 10.02083 23020 ft 438 kts 192°
2026-04-28 20:10 35.69847 10.01482 23026 ft 438 kts 192°
2026-04-28 20:10 35.66832 10.00880 23019 ft 438 kts 192°
2026-04-28 20:11 35.63829 10.00282 23023 ft 438 kts 192°
2026-04-28 20:11 35.60822 9.99682 23021 ft 438 kts 192°
2026-04-28 20:11 35.57800 9.99080 23348 ft 441 kts 193°
2026-04-28 20:11 35.54766 9.98475 23971 ft 443 kts 193°
2026-04-28 20:12 35.51725 9.97871 24562 ft 444 kts 193°
2026-04-28 20:12 35.48661 9.97261 25095 ft 446 kts 193°
2026-04-28 20:12 35.45587 9.96650 25582 ft 450 kts 193°
2026-04-28 20:12 35.43535 9.96243 25899 ft 452 kts 193°
2026-04-28 20:13 35.39407 9.95424 26537 ft 455 kts 193°
2026-04-28 20:13 35.36272 9.94803 27030 ft 458 kts 193°
2026-04-28 20:13 35.33121 9.94179 27501 ft 460 kts 194°
2026-04-28 20:13 35.29951 9.93553 27943 ft 463 kts 194°
2026-04-28 20:14 35.26761 9.92922 28379 ft 465 kts 194°
2026-04-28 20:14 35.23559 9.92290 28773 ft 468 kts 194°
2026-04-28 20:14 35.20329 9.91653 29142 ft 471 kts 194°
2026-04-28 20:14 35.17086 9.91013 29534 ft 473 kts 194°
2026-04-28 20:15 35.13841 9.90376 30055 ft 471 kts 194°
2026-04-28 20:15 35.10611 9.89743 30571 ft 468 kts 194°
2026-04-28 20:15 35.07410 9.89116 31066 ft 465 kts 194°
2026-04-28 20:15 35.04216 9.88490 31538 ft 463 kts 195°
2026-04-28 20:16 35.01045 9.87870 31915 ft 462 kts 195°